{"data":{"norad_id":56908,"epoch":"2026-05-25T00:35:32.973216Z","epoch_age_seconds":87105,"freshness":"FRESH","line1":"1 56908U 23083AJ  26145.02468719 -.00000107  00000+0  56279-5 0  9991","line2":"2 56908  43.0036 359.4917 0001077 264.6527  95.4201 15.27575804163477","mean_motion":15.27575804,"eccentricity":0.0001077,"inclination_deg":43.0036,"raan_deg":359.4917,"arg_perigee_deg":264.6527,"mean_anomaly_deg":95.4201,"bstar":5.6279e-6,"rev_number":16347,"period_min":94.267007648938,"perigee_km":482.32270930619,"apogee_km":483.80061149764,"semimajor_km":6861.1986604019,"source":"CELESTRAK","updated_at":"2026-05-25T13:38:18.203109Z"}}